Wind_Speed
17 18 18 18 18 17 17 17 17 16 16 15 15 15 14 13 12 12 11 11 10 10 9 9 8 7 7 6 6 6 6 5 5 5 5 5 5 6 6 6 6 6 7
19 19 18 18 18 18 18 18 18 17 17 17 16 16 16 15 14 13 13 12 11 11 11 10 9 9 8 8 7 7 7 7 7 7 7 7 7 7 7 7 7 8 8
20 20 20 19 19 19 19 19 19 19 19 18 18 18 17 16 16 15 14 14 13 12 12 12 11 10 10 10 9 9 9 9 9 8 8 8 8 8 8 8 9 9 9
22 22 22 21 21 20 20 20 20 20 20 20 20 19 19 18 18 17 16 15 14 14 13 13 13 13 12 11 11 11 10 10 10 10 9 9 9 9 10 10 10 10 11
24 23 23 23 23 22 22 22 22 22 21 21 21 21 20 20 19 19 18 17 16 16 15 14 14 14 14 13 13 12 12 12 11 11 11 11 11 10 11 11 11 11 12
25 25 24 24 24 24 24 24 24 23 23 22 22 22 21 21 20 20 19 19 18 17 17 16 15 15 15 14 14 13 13 13 12 12 11 11 11 11 11 12 12 12 13
27 26 26 26 26 25 25 25 25 24 24 24 23 23 22 22 22 21 21 20 20 19 18 17 17 17 16 16 15 15 14 14 13 13 13 13 13 13 13 13 13 14 14
28 27 27 27 27 27 26 26 26 26 26 25 25 24 24 24 23 22 22 22 21 20 19 19 18 18 17 17 17 16 16 15 14 14 14 14 14 14 14 14 14 14 15
29 29 29 29 29 29 28 28 27 27 27 27 26 26 26 25 24 23 23 23 23 22 21 20 20 19 19 19 18 18 17 17 16 16 16 16 16 16 15 15 15 16 16
30 30 30 30 30 30 30 29 29 29 29 28 28 28 27 26 26 26 25 25 24 24 23 23 22 21 21 21 20 19 19 18 18 18 17 17 18 18 17 17 17 17 17
29 29 31 30 31 31 31 31 31 31 31 31 30 30 29 28 28 28 28 27 26 26 25 25 24 24 23 23 22 21 21 20 20 20 20 19 19 19 19 19 19 19 19
29 30 31 31 31 32 32 32 32 32 32 33 32 32 31 30 30 30 30 29 28 27 27 27 26 26 25 25 24 23 23 22 22 22 21 21 21 20 20 21 22 21 21
30 30 31 31 32 33 33 33 34 34 34 35 35 35 34 34 33 32 32 31 30 29 28 28 27 27 27 26 26 25 24 24 24 23 23 23 23 23 22 23 23 23 23
31 31 32 33 33 33 34 35 35 36 36 37 37 37 36 36 36 35 33 33 32 31 30 30 29 29 29 28 27 26 26 25 25 25 25 25 25 24 24 24 24 24 25
31 32 33 33 34 34 35 36 36 37 37 38 38 37 37 37 37 37 35 35 34 32 31 31 30 30 29 29 28 28 27 27 26 26 26 26 26 26 26 26 26 26 27
32 33 34 34 35 35 35 36 36 36 36 37 38 38 38 38 38 38 37 36 35 34 33 32 32 31 31 30 29 29 28 28 28 28 28 28 28 29 29 29 29 28 28
32 33 35 35 34 35 35 35 35 35 36 37 38 39 39 38 39 39 38 37 37 36 34 33 33 33 33 32 31 31 30 30 30 30 30 30 30 31 31 30 30 31 30
33 33 35 36 35 34 34 35 35 35 36 37 38 39 39 39 39 39 40 39 38 37 35 35 34 34 34 33 32 32 32 31 31 31 32 32 32 32 32 31 32 32 32
32 32 33 35 35 34 34 34 36 36 37 37 37 38 40 40 39 40 41 40 39 38 37 36 36 36 35 35 34 34 33 33 33 33 33 33 33 33 33 33 33 33 33
32 32 32 34 34 34 34 34 35 36 37 37 37 37 39 40 39 40 40 40 40 39 37 37 38 37 37 36 36 35 35 34 33 34 34 34 34 34 34 34 35 36 36
32 31 32 33 35 35 35 34 34 34 35 36 36 37 38 40 39 40 40 41 41 41 39 38 38 38 38 37 37 37 36 36 35 35 35 36 36 36 36 37 37 38 38
31 31 32 32 34 34 33 33 33 33 33 34 35 37 37 39 39 40 41 41 41 42 41 39 38 39 38 38 38 38 37 37 37 37 37 37 38 38 39 39 39 40 41
30 30 31 31 33 33 33 33 33 33 34 34 35 36 37 39 38 39 40 41 41 41 41 40 39 40 39 39 40 40 39 38 38 38 39 39 40 40 41 41 42 42 43
29 29 29 30 31 31 33 34 33 32 33 34 36 37 37 37 37 38 39 40 40 40 40 40 41 41 40 41 41 41 41 41 40 39 40 41 42 43 44 44 44 45 45
29 29 29 30 31 31 31 32 32 32 32 33 35 36 37 36 37 38 39 40 40 40 39 40 40 41 41 42 42 41 41 41 42 42 42 42 43 44 45 46 46 47 47
28 29 29 29 30 31 31 31 31 32 33 33 33 35 35 35 37 37 39 39 40 41 40 40 40 40 41 43 43 43 44 44 43 44 44 44 45 45 46 47 48 48 49
Wind_Direction
247 247 246 246 245 244 242 240 239 236 237 236 235 232 231 232 232 232 230 230 230 231 229 230 234 237 243 245 248 254 262 267 274 281 288 293 298 301 304 306 305 307 310
249 248 247 247 246 245 242 239 239 239 238 238 237 235 233 234 235 235 234 234 234 232 233 235 238 240 245 249 252 256 262 266 273 278 285 289 291 293 294 297 298 301 304
249 248 248 247 246 245 244 242 241 241 240 239 239 238 237 237 237 237 238 239 238 237 237 238 240 243 247 250 253 258 263 266 269 274 281 287 289 289 288 290 293 295 298
250 248 248 246 246 245 244 243 242 242 242 241 241 241 240 239 240 240 240 241 242 241 241 241 242 244 248 252 255 259 263 266 268 272 277 281 285 285 285 286 289 292 293
248 247 247 246 246 245 245 244 243 243 243 244 244 243 243 243 242 243 244 243 243 244 244 244 245 247 249 253 256 260 264 266 268 271 274 278 281 284 285 286 288 290 291
248 247 246 245 245 246 246 245 244 243 243 244 246 246 245 245 245 245 247 246 245 246 247 247 248 249 251 254 256 259 264 268 269 270 273 276 279 282 284 285 287 288 289
247 247 246 245 245 245 245 245 245 245 243 244 246 246 247 248 248 247 247 247 247 246 247 248 249 251 252 254 257 261 264 267 269 270 272 275 279 282 284 286 286 287 288
247 246 246 246 246 246 245 245 245 246 244 245 246 248 249 249 248 249 248 249 248 247 248 249 251 252 253 256 259 262 264 266 268 271 273 276 279 282 284 286 286 287 289
246 246 247 247 247 247 246 246 245 246 246 246 246 248 250 251 250 249 250 250 249 248 248 249 252 253 254 256 259 262 264 265 266 270 273 275 277 279 282 283 284 287 288
247 247 248 248 248 248 248 247 246 246 246 247 247 248 248 250 251 250 251 252 251 250 248 249 251 253 255 257 259 261 264 265 267 268 271 275 278 278 280 281 283 284 286
248 249 249 249 249 249 249 248 247 247 247 248 248 248 248 249 251 251 251 252 253 252 250 251 252 253 255 257 259 261 263 264 266 268 270 274 277 279 280 281 281 282 284
250 249 249 249 249 250 251 250 250 249 249 249 249 249 249 250 251 251 250 251 253 253 252 252 253 255 256 257 259 261 263 264 265 266 269 272 275 278 280 281 281 282 282
252 251 250 251 251 252 252 252 252 251 250 250 250 249 249 250 251 252 252 252 253 253 253 253 254 255 257 258 260 262 263 264 265 267 269 271 274 276 279 281 281 282 282
253 252 252 253 253 253 254 254 253 252 251 250 250 250 249 250 251 251 252 252 251 252 254 254 254 255 257 259 260 263 264 266 266 268 269 271 274 276 278 280 280 281 282
254 253 253 253 255 256 256 256 255 253 252 251 250 250 250 249 250 250 251 251 249 249 252 253 252 254 256 258 260 263 264 266 266 268 270 272 274 276 277 278 280 281 282
255 254 254 255 257 257 256 256 255 254 252 251 251 250 249 249 249 248 249 249 249 250 251 251 251 253 255 257 260 262 265 266 267 268 270 273 275 276 277 278 278 281 282
255 255 255 255 256 257 257 255 255 254 253 252 251 250 248 247 247 246 247 248 249 250 251 251 252 253 255 257 260 262 265 267 268 269 270 273 275 276 277 278 278 279 281
256 256 256 255 255 258 258 256 255 255 255 254 252 250 247 246 245 245 246 248 250 251 252 252 253 255 256 257 259 262 264 267 268 269 271 273 275 276 277 278 279 280 280
258 257 256 255 255 257 257 256 255 255 254 255 253 250 247 246 246 246 247 248 249 250 251 253 254 255 257 258 259 261 265 267 268 269 271 273 275 276 278 278 279 279 279
259 258 258 256 255 257 258 258 256 255 256 256 254 249 247 246 246 247 247 248 248 247 249 253 256 255 256 257 258 261 264 266 268 270 272 273 274 276 277 278 278 279 279
259 258 259 257 257 257 258 258 258 256 256 255 253 248 247 246 246 247 246 247 246 247 250 253 255 255 255 257 259 261 264 266 268 270 272 273 275 276 277 278 278 278 279
262 262 261 259 259 259 259 257 258 257 257 254 252 250 248 247 246 246 245 245 245 248 250 252 254 254 256 258 260 262 264 266 268 269 271 273 275 275 276 277 278 279 279
263 263 261 259 261 263 260 259 261 259 257 255 252 250 249 247 246 246 246 245 247 249 250 252 254 255 256 258 261 263 265 266 266 268 270 272 274 275 276 277 278 278 279
264 262 262 262 263 264 263 261 262 260 257 255 252 250 249 246 247 248 247 247 246 249 252 253 256 257 258 260 262 265 266 268 269 269 270 272 274 275 276 277 278 278 278
264 263 263 264 265 267 267 262 260 259 257 256 252 250 247 246 247 248 247 246 247 249 252 255 257 258 260 260 263 265 266 269 272 271 272 274 275 276 277 277 278 278 278
266 265 264 266 267 268 266 262 260 258 256 253 250 249 246 246 248 249 248 248 249 251 254 257 258 260 261 261 264 267 268 270 272 273 274 276 276 278 278 277 277 277 277
Height
5842 5843 5844 5845 5846 5847 5848 5849 5851 5852 5853 5854 5855 5856 5857 5858 5859 5859 5860 5861 5862 5862 5863 5864 5864 5865 5865 5866 5866 5866 5866 5867 5867 5867 5867 5867 5867 5867 5868 5868 5867 5867 5867
5839 5840 5841 5842 5843 5844 5845 5847 5848 5849 5850 5852 5853 5854 5855 5856 5857 5858 5859 5859 5860 5861 5862 5862 5863 5863 5864 5864 5865 5865 5865 5866 5866 5866 5866 5866 5866 5866 5866 5866 5866 5866 5866
5835 5837 5838 5839 5840 5841 5842 5844 5845 5846 5848 5849 5850 5851 5852 5853 5855 5856 5857 5857 5858 5859 5860 5861 5861 5862 5862 5863 5863 5863 5864 5864 5864 5865 5865 5865 5865 5865 5865 5865 5865 5864 5864
5831 5833 5834 5836 5837 5838 5839 5840 5842 5843 5844 5846 5847 5848 5849 5851 5852 5853 5854 5855 5856 5857 5858 5858 5859 5860 5860 5861 5861 5862 5862 5862 5862 5863 5863 5863 5863 5863 5863 5863 5863 5862 5862
5826 5828 5830 5832 5833 5834 5835 5837 5838 5839 5841 5842 5844 5845 5846 5848 5849 5850 5851 5852 5853 5854 5855 5856 5857 5858 5858 5859 5859 5859 5860 5860 5860 5861 5861 5861 5861 5861 5861 5860 5860 5860 5860
5822 5824 5825 5827 5829 5830 5831 5833 5834 5836 5837 5838 5840 5841 5843 5844 5845 5847 5848 5849 5850 5851 5852 5853 5854 5855 5856 5856 5857 5857 5857 5858 5858 5858 5859 5859 5859 5859 5858 5858 5858 5858 5857
5817 5819 5820 5822 5824 5825 5827 5828 5830 5831 5833 5834 5836 5837 5839 5840 5842 5843 5844 5846 5847 5848 5849 5850 5851 5852 5853 5853 5854 5854 5855 5855 5855 5856 5856 5856 5856 5856 5856 5856 5855 5855 5855
5811 5813 5815 5817 5818 5820 5822 5824 5825 5827 5828 5829 5831 5833 5834 5836 5837 5839 5840 5842 5843 5844 5846 5847 5848 5849 5849 5850 5851 5851 5852 5852 5852 5853 5853 5853 5853 5853 5853 5853 5852 5852 5852
5805 5807 5809 5811 5813 5815 5817 5818 5820 5821 5823 5825 5826 5828 5830 5831 5833 5835 5836 5837 5839 5840 5842 5843 5844 5845 5846 5847 5847 5848 5848 5849 5849 5850 5850 5850 5850 5850 5850 5850 5849 5849 5848
5799 5801 5803 5805 5807 5809 5811 5813 5814 5816 5817 5819 5821 5823 5824 5826 5828 5830 5831 5833 5834 5836 5837 5838 5840 5841 5842 5843 5843 5844 5845 5845 5846 5846 5846 5846 5846 5846 5846 5846 5846 5845 5845
5792 5794 5796 5799 5801 5803 5804 5806 5808 5809 5811 5813 5815 5817 5819 5820 5822 5824 5826 5828 5829 5831 5832 5834 5835 5836 5837 5838 5839 5840 5840 5841 5842 5842 5842 5842 5842 5842 5842 5842 5842 5841 5841
5785 5787 5789 5792 5793 5795 5797 5799 5801 5803 5805 5807 5808 5810 5812 5814 5816 5818 5820 5822 5824 5825 5827 5828 5829 5831 5832 5833 5834 5835 5836 5836 5837 5837 5838 5838 5838 5838 5837 5837 5837 5837 5836
5778 5780 5782 5784 5786 5788 5790 5791 5793 5795 5797 5799 5801 5803 5805 5807 5809 5811 5814 5816 5818 5819 5820 5822 5824 5825 5827 5828 5829 5830 5831 5831 5832 5832 5833 5833 5833 5833 5833 5832 5832 5832 5831
5771 5773 5775 5776 5778 5780 5781 5783 5785 5786 5788 5790 5793 5795 5797 5800 5802 5804 5807 5809 5811 5813 5815 5816 5818 5819 5821 5822 5823 5824 5825 5826 5826 5826 5827 5827 5827 5827 5827 5827 5827 5827 5826
5764 5765 5767 5768 5769 5771 5772 5774 5775 5777 5779 5781 5783 5786 5789 5791 5793 5796 5799 5801 5804 5806 5808 5809 5811 5813 5814 5815 5816 5818 5819 5820 5820 5821 5821 5821 5821 5821 5822 5821 5821 5821 5820
5756 5757 5758 5760 5760 5761 5763 5764 5766 5767 5769 5771 5774 5776 5779 5782 5785 5787 5791 5793 5796 5798 5800 5802 5804 5806 5807 5809 5810 5811 5812 5813 5814 5814 5815 5815 5815 5815 5815 5815 5814 5814 5814
5747 5748 5750 5750 5751 5752 5754 5755 5756 5758 5760 5762 5764 5767 5769 5772 5775 5778 5782 5785 5788 5790 5792 5794 5796 5798 5800 5802 5803 5804 5806 5806 5807 5807 5808 5808 5808 5808 5808 5808 5807 5807 5807
5738 5739 5741 5741 5743 5744 5745 5746 5748 5749 5751 5752 5754 5757 5760 5763 5766 5769 5773 5776 5779 5782 5785 5787 5789 5791 5793 5794 5796 5797 5798 5799 5800 5800 5800 5801 5801 5801 5801 5800 5800 5800 5800
5729 5730 5732 5733 5734 5734 5735 5737 5738 5740 5741 5743 5744 5747 5750 5753 5756 5760 5763 5766 5770 5773 5776 5779 5781 5783 5785 5787 5788 5790 5791 5792 5792 5792 5793 5793 5793 5793 5793 5793 5793 5792 5792
5721 5722 5723 5724 5724 5725 5726 5728 5729 5730 5732 5733 5735 5737 5740 5744 5747 5751 5754 5757 5761 5765 5768 5770 5773 5775 5777 5778 5780 5781 5782 5783 5784 5784 5784 5785 5785 5785 5785 5785 5784 5784 5783
5713 5714 5715 5716 5717 5717 5718 5719 5720 5721 5722 5724 5726 5728 5731 5734 5738 5741 5745 5748 5752 5756 5758 5762 5764 5766 5768 5769 5771 5773 5774 5774 5775 5776 5776 5776 5776 5776 5776 5776 5775 5775 5774
5705 5706 5707 5708 5708 5708 5709 5710 5711 5712 5714 5715 5717 5719 5722 5725 5729 5732 5735 5739 5743 5746 5749 5752 5755 5757 5758 5760 5762 5763 5764 5766 5766 5767 5767 5767 5767 5766 5766 5766 5766 5765 5765
5698 5699 5699 5700 5700 5701 5702 5702 5703 5704 5705 5707 5709 5711 5714 5717 5720 5723 5726 5730 5734 5737 5740 5743 5745 5747 5749 5751 5752 5753 5755 5756 5756 5758 5757 5757 5757 5756 5756 5756 5755 5755 5754
5691 5692 5692 5692 5693 5693 5693 5694 5695 5696 5697 5699 5701 5703 5705 5708 5711 5714 5718 5721 5725 5728 5731 5733 5735 5737 5739 5741 5742 5743 5745 5746 5746 5747 5748 5747 5747 5746 5746 5745 5744 5743 5743
5684 5684 5684 5685 5685 5685 5686 5686 5687 5688 5689 5691 5692 5695 5697 5700 5703 5706 5709 5712 5716 5719 5721 5723 5725 5727 5728 5731 5732 5733 5734 5734 5735 5735 5736 5737 5736 5735 5734 5733 5732 5732 5731
5677 5677 5677 5678 5678 5678 5678 5679 5679 5681 5682 5683 5685 5687 5689 5692 5695 5697 5700 5703 5706 5709 5712 5714 5715 5716 5718 5720 5722 5722 5722 5723 5723 5723 5723 5724 5724 5724 5722 5721 5720 5719 5718